Location: *
(49.0044°N, 9.5056°E)
Time: 15:00:02
(UTC+00:00)

Cosmos 1626 - Pass Details

Date: 22 September 2019
Orbit: 493 x 495 km, 82.5° (Epoch: 16 October)

Event Time Altitude Azimuth Distance (km) Brightness Sun altitude
Rises 19:24:33 0° 357° (N) 2,590 6.2 -20.5°
Reaches altitude 10° 19:26:47 10° 6° (N) 1,702 5.1 -20.8°
Enters shadow 19:28:58 27° 32° (NNE) 981 3.5 -21.1°
